User: anonymous   Login
Location: Baix
(44.7118°N, 4.7648°E)
Time: 07:31:22
(UTC+00:00)
Language:

Sich 1 Rocket - Orbit

View from above orbital plane
View from above orbital plane
View from above satellite
View from above satellite

Ground track
Ground track

The orbit data is extracted from the following two-line orbital elements,

1 23659U 95046C   20299.97286510 +.00000070 +00000-0 +63942-5 0  9995
2 23659 082.5306 247.0632 0025627 177.4282 249.5129 14.78349183355472
Epoch (UTC): 25 October 2020 23:20:55
Eccentricity: 0.0025627
inclination: 82.5306°
perigee height: 616 km
apogee height: 652 km
right ascension of ascending node: 247.0632°
argument of perigee: 177.4282°
revolutions per day: 14.78349183
mean anomaly at epoch: 249.5129°
orbit number at epoch: 35547

The dashed part of the orbit path shows where the satellite is in the earth's shadow,  

DLR